This is the latest recevied weather packets stored in our database for station/object K4CRS-13. If no packets are shown the sender has not sent any weather packets the latest 10 day(s).
| Time | Temp. | Humidity | Pressure | Rain* | Wind** | Luminosity | Snow |
|---|---|---|---|---|---|---|---|
| 1777903896 | 20° C | 63% | 1051.7 hPa | 0 mm | - | 412 W/m² | - |
| 1777903593 | 19.44° C | 62% | 1051.5 hPa | 0 mm | - | 466 W/m² | - |
| 1777903288 | 18.89° C | 64% | 1051.8 hPa | 0 mm | - | 464 W/m² | - |
| 1777902986 | 18.89° C | 65% | 1052 hPa | 0 mm | - | 447 W/m² | - |
| 1777902682 | 18.89° C | 65% | 1051.9 hPa | 0 mm | - | 428 W/m² | - |
| 1777902380 | 18.89° C | 70% | 1051.8 hPa | 0 mm | - | 410 W/m² | - |
| 1777902076 | 18.33° C | 70% | 1052 hPa | 0 mm | - | 400 W/m² | - |
| 1777901775 | 17.22° C | 71% | 1051.8 hPa | 0 mm | - | 386 W/m² | - |
| 1777901471 | 17.78° C | 71% | 1051.9 hPa | 0 mm | - | 288 W/m² | - |
| 1777901169 | 17.22° C | 72% | 1052.1 hPa | 0 mm | - | 305 W/m² | - |
| 1777900867 | 16.67° C | 73% | 1051.9 hPa | 0 mm | - | 260 W/m² | - |
| 1777900564 | 16.67° C | 75% | 1052.2 hPa | 0 mm | - | 312 W/m² | - |
| 1777900260 | 15.56° C | 79% | 1051.9 hPa | 0 mm | - | 311 W/m² | - |
| 1777899957 | 15° C | 83% | 1052 hPa | 0 mm | - | 274 W/m² | - |
| 1777899654 | 13.89° C | 88% | 1051.8 hPa | 0 mm | - | 245 W/m² | - |
| 1777899352 | 12.78° C | 92% | 1052.1 hPa | 0 mm | - | 239 W/m² | - |
| 1777899049 | 11.67° C | 95% | 1051.9 hPa | 0 mm | - | 202 W/m² | - |
| 1777898745 | 11.67° C | 97% | 1052.1 hPa | 0 mm | - | 167 W/m² | - |
| 1777898443 | 11.11° C | 98% | 1052.1 hPa | 0 mm | - | 130 W/m² | - |
| 1777898141 | 10.56° C | 98% | 1051.8 hPa | 0 mm | - | 130 W/m² | - |
| 1777897838 | 10.56° C | 99% | 1051.8 hPa | 0 mm | - | 100 W/m² | - |
| 1777897533 | 9.44° C | 99% | 1051.8 hPa | 0 mm | - | 93 W/m² | - |
| 1777897229 | 8.89° C | 99% | 1051.8 hPa | 0 mm | - | 65 W/m² | - |
| 1777896926 | 8.89° C | 99% | 1051.6 hPa | 0 mm | - | 48 W/m² | - |
| 1777896623 | 8.33° C | 99% | 1051.8 hPa | 0 mm | - | 45 W/m² | - |
* Rain latest hour (hover to see other rain measurements)
** Current wind speed in m/s (hover to see current wind gust speed)